Opa Locka, FL

3:49 PM EDT on May 26, 2018 (GMT -0400)
Opa Locka

Weather History for KOPF - October, 2012

Change the Weather History Date:

Wednesday, October 3, 2012

  Actual Average Record
Temperature  
Mean Temperature 82 °F -  
Max Temperature 89 °F 87 °F 94 °F (1980)
Min Temperature 75 °F 73 °F 63 °F (1976)
Cooling Degree Days 16    
Growing Degree Days 32 (Base 50)    
Moisture  
Dew Point 76 °F    
Average Humidity 83    
Maximum Humidity 97    
Minimum Humidity 65    
Precipitation  
Precipitation 0.04 in - - ()
Sea Level Pressure  
Sea Level Pressure 30.10 in    
Wind  
Wind Speed 5 mph (ESE)    
Max Wind Speed 14 mph    
Max Gust Speed -    
Visibility 10 miles    
Events Rain    
Averages and records for this station are not official NWS values.
T = Trace of Precipitation, MM = Missing Value Source: NWS Daily Summary

Daily Weather History Graph

Daily Weather History Graph

Search for Another Location

Airport or City:

Astronomy

Oct. 03, 2012 Rise Set
Actual Time 7:14 AM EDT 7:05 PM EDT
Civil Twilight 6:51 AM EDT 7:28 PM EDT
Nautical Twilight 6:24 AM EDT 7:54 PM EDT
Astronomical Twilight 5:58 AM EDT 8:21 PM EDT
Moon 9:20 PM EDT (10/3) 10:13 AM EDT (10/3)
Length of Visible Light 12h 36m
Length of Day
11h 50m
Waning Gibbous, 89% of the Moon is Illuminated
Oct 3
Waning Gibbous
Oct 8
Last Quarter
Oct 15
New
Oct 21
First Quarter
Oct 29
Full

Hourly Weather History & Observations

Time (EDT) Temp. Heat Index Dew Point Humidity Pressure Visibility Wind Dir Wind Speed Gust Speed Precip Events Conditions
12:53 AM 77.0 °F - 75.0 °F 94% 30.07 in 10.0 mi Calm Calm - 0.01 in Rain Light Rain
1:53 AM 77.0 °F - 75.0 °F 94% 30.08 in 10.0 mi ESE 5.8 mph - 0.01 in Rain Light Rain
2:53 AM 77.0 °F - 75.9 °F 96% 30.06 in 10.0 mi SE 5.8 mph - 0.02 in   Clear
3:53 AM 77.0 °F - 75.0 °F 94% 30.06 in 10.0 mi Calm Calm - 0.00 in   Clear
4:53 AM 75.9 °F - 75.0 °F 97% 30.07 in 10.0 mi Calm Calm - N/A   Clear
5:48 AM 77.0 °F - 75.2 °F 94% 30.08 in 10.0 mi Calm Calm - N/A   Mostly Cloudy
5:53 AM 77.0 °F - 75.0 °F 94% 30.09 in 10.0 mi Calm Calm - N/A   Mostly Cloudy
6:21 AM 77.0 °F - 75.2 °F 94% 30.08 in 10.0 mi ENE 3.5 mph - N/A   Scattered Clouds
6:53 AM 75.9 °F - 75.0 °F 97% 30.09 in 10.0 mi East 3.5 mph - N/A   Partly Cloudy
7:53 AM 75.9 °F - 75.0 °F 97% 30.11 in 10.0 mi Calm Calm - N/A   Clear
8:53 AM 81.0 °F 87.9 °F 77.0 °F 88% 30.12 in 10.0 mi East 5.8 mph - N/A   Clear
9:53 AM 84.9 °F 96.6 °F 78.1 °F 80% 30.12 in 10.0 mi ESE 8.1 mph - N/A   Partly Cloudy
10:53 AM 86.0 °F 96.9 °F 77.0 °F 74% 30.12 in 10.0 mi SE 11.5 mph - N/A   Partly Cloudy
11:53 AM 87.1 °F 98.8 °F 77.0 °F 72% 30.12 in 10.0 mi ESE 11.5 mph - N/A   Partly Cloudy
12:53 PM 87.1 °F 98.8 °F 77.0 °F 72% 30.12 in 10.0 mi ESE 13.8 mph - N/A   Scattered Clouds
1:53 PM 88.0 °F 100.2 °F 77.0 °F 70% 30.11 in 10.0 mi ESE 9.2 mph - N/A   Scattered Clouds
2:53 PM 88.0 °F 100.2 °F 77.0 °F 70% 30.09 in 10.0 mi SE 12.7 mph - N/A   Partly Cloudy
3:53 PM 88.0 °F 98.5 °F 75.9 °F 67% 30.09 in 10.0 mi SSE 11.5 mph - N/A   Partly Cloudy
4:53 PM 88.0 °F 97.5 °F 75.0 °F 65% 30.09 in 10.0 mi ESE 9.2 mph - N/A   Clear
5:53 PM 86.0 °F 95.1 °F 75.0 °F 70% 30.10 in 10.0 mi SE 6.9 mph - N/A   Clear
6:53 PM 82.9 °F 89.4 °F 73.9 °F 74% 30.09 in 10.0 mi ESE 9.2 mph - N/A   Clear
7:10 PM 82.4 °F 89.5 °F 75.2 °F 79% 30.09 in 2.0 mi ESE 8.1 mph - N/A   Haze
7:20 PM 82.4 °F 89.5 °F 75.2 °F 79% 30.09 in 10.0 mi ESE 9.2 mph - N/A   Clear
7:53 PM 82.0 °F 89.4 °F 75.9 °F 82% 30.10 in 10.0 mi East 6.9 mph - N/A   Clear
8:53 PM 82.0 °F 90.2 °F 77.0 °F 85% 30.14 in 10.0 mi ENE 3.5 mph - N/A   Clear
9:53 PM 82.0 °F 90.2 °F 77.0 °F 85% 30.14 in 10.0 mi East 4.6 mph - N/A   Scattered Clouds
10:53 PM 82.0 °F 91.0 °F 78.1 °F 88% 30.17 in 10.0 mi East 4.6 mph - N/A   Scattered Clouds
11:53 PM 82.0 °F 90.2 °F 77.0 °F 85% 30.16 in 10.0 mi East 8.1 mph - N/A   Partly Cloudy